Time,TemperatureF,DewpointF,PressureIn,WindDirection,WindDirectionDegrees,WindSpeedMPH,WindSpeedGustMPH,Humidity,HourlyPrecipIn,Conditions,Clouds,dailyrainin,SoftwareType,DateUTC
2013-07-25 00:00:00,65.5,23.4,29.94,West,270,3.8,6.3,20,0.00,,---,0.00,VWS V14.01,2013-07-25 04:00:00,
2013-07-25 00:01:00,65.5,23.4,29.94,NW,315,5.6,5.8,20,0.00,,---,0.00,VWS V14.01,2013-07-25 04:01:00,
2013-07-25 00:02:00,65.5,23.4,29.94,NW,315,4.0,5.8,20,0.00,,---,0.00,VWS V14.01,2013-07-25 04:02:00,
2013-07-25 00:07:00,65.5,23.4,29.94,NNE,22,3.4,5.8,20,0.00,,---,0.00,VWS V14.01,2013-07-25 04:07:00,
2013-07-25 00:10:00,65.3,23.2,29.94,NW,315,6.3,6.3,20,0.00,,---,0.00,VWS V14.01,2013-07-25 04:10:00,
2013-07-25 00:12:00,65.3,23.2,29.94,NNE,22,3.8,6.3,20,0.00,,---,0.00,VWS V14.01,2013-07-25 04:12:00,
2013-07-25 00:17:00,65.1,23.1,29.94,North,0,4.3,7.2,20,0.00,,---,0.00,VWS V14.01,2013-07-25 04:17:00,
2013-07-25 00:20:00,65.1,23.1,29.94,NNW,338,2.9,7.2,20,0.00,,---,0.00,VWS V14.01,2013-07-25 04:20:00,
2013-07-25 00:23:00,65.1,23.1,29.94,NE,45,3.4,4.0,20,0.00,,---,0.00,VWS V14.01,2013-07-25 04:23:00,
2013-07-25 00:28:00,64.9,22.9,29.94,NE,45,4.9,7.8,20,0.00,,---,0.00,VWS V14.01,2013-07-25 04:28:00,
2013-07-25 00:30:00,64.9,22.9,29.94,NNW,338,3.4,7.8,20,0.00,,---,0.00,VWS V14.01,2013-07-25 04:30:00,
2013-07-25 00:33:00,64.8,22.8,29.94,NNE,22,0.9,3.6,20,0.00,,---,0.00,VWS V14.01,2013-07-25 04:33:00,
2013-07-25 00:38:00,64.6,22.6,29.94,West,270,4.9,7.4,20,0.00,,---,0.00,VWS V14.01,2013-07-25 04:38:00,
2013-07-25 00:40:00,64.6,22.6,29.94,West,270,2.9,7.4,20,0.00,,---,0.00,VWS V14.01,2013-07-25 04:40:00,
2013-07-25 00:43:00,64.4,22.5,29.94,NNE,22,3.8,7.8,20,0.00,,---,0.00,VWS V14.01,2013-07-25 04:43:00,
2013-07-25 00:48:00,64.4,22.5,29.94,North,0,1.3,7.8,20,0.00,,---,0.00,VWS V14.01,2013-07-25 04:48:00,
2013-07-25 00:50:00,64.4,22.5,29.94,NE,45,2.7,7.8,20,0.00,,---,0.00,VWS V14.01,2013-07-25 04:50:00,
2013-07-25 00:53:00,64.2,23.5,29.94,North,0,2.0,7.2,21,0.00,,---,0.00,VWS V14.01,2013-07-25 04:53:00,
2013-07-25 00:58:00,64.2,23.5,29.94,North,0,4.0,7.2,21,0.00,,---,0.00,VWS V14.01,2013-07-25 04:58:00,
2013-07-25 01:00:00,64.2,23.5,29.94,NE,45,5.4,7.2,21,0.00,,---,0.00,VWS V14.01,2013-07-25 05:00:00,
2013-07-25 01:03:00,64.0,23.3,29.94,SW,225,2.7,5.6,21,0.00,,---,0.00,VWS V14.01,2013-07-25 05:03:00,
2013-07-25 01:08:00,63.9,23.2,29.94,NE,45,2.9,9.2,21,0.00,,---,0.00,VWS V14.01,2013-07-25 05:08:00,
2013-07-25 01:10:00,63.9,23.2,29.94,NW,315,3.4,9.2,21,0.00,,---,0.00,VWS V14.01,2013-07-25 05:10:00,
2013-07-25 01:14:00,63.7,23.0,29.94,NW,315,3.4,6.0,21,0.00,,---,0.00,VWS V14.01,2013-07-25 05:14:00,
2013-07-25 01:19:00,63.7,23.0,29.94,NW,315,2.9,6.0,21,0.00,,---,0.00,VWS V14.01,2013-07-25 05:19:00,
2013-07-25 01:20:00,63.7,23.0,29.94,NW,315,2.9,6.0,21,0.00,,---,0.00,VWS V14.01,2013-07-25 05:20:00,
2013-07-25 01:24:00,63.5,22.9,29.94,NW,315,2.0,5.8,21,0.00,,---,0.00,VWS V14.01,2013-07-25 05:24:00,
2013-07-25 01:29:00,63.3,22.8,29.94,NE,45,2.7,5.4,21,0.00,,---,0.00,VWS V14.01,2013-07-25 05:29:00,
2013-07-25 01:30:00,63.3,22.8,29.94,East,90,5.4,8.5,21,0.00,,---,0.00,VWS V14.01,2013-07-25 05:30:00,
2013-07-25 01:34:00,63.1,22.6,29.94,NW,315,3.8,7.4,21,0.00,,---,0.00,VWS V14.01,2013-07-25 05:34:00,
2013-07-25 01:39:00,63.0,22.5,29.94,NW,315,1.6,2.0,21,0.00,,---,0.00,VWS V14.01,2013-07-25 05:39:00,
2013-07-25 01:40:00,63.0,22.4,29.94,NNW,338,2.0,7.4,21,0.00,,---,0.00,VWS V14.01,2013-07-25 05:40:00,
2013-07-25 01:44:00,62.8,22.3,29.94,ENE,68,2.0,5.8,21,0.00,,---,0.00,VWS V14.01,2013-07-25 05:44:00,
2013-07-25 01:49:00,62.6,22.1,29.91,NE,45,4.0,4.0,21,0.00,,---,0.00,VWS V14.01,2013-07-25 05:49:00,
2013-07-25 01:50:00,62.6,22.1,29.91,North,0,4.0,7.2,21,0.00,,---,0.00,VWS V14.01,2013-07-25 05:50:00,
2013-07-25 01:54:00,62.6,22.1,29.91,NNW,338,2.0,4.3,21,0.00,,---,0.00,VWS V14.01,2013-07-25 05:54:00,
2013-07-25 01:59:00,62.4,22.0,29.91,North,0,2.0,4.0,21,0.00,,---,0.00,VWS V14.01,2013-07-25 05:59:00,
2013-07-25 02:00:00,62.4,22.0,29.91,North,0,4.0,6.5,21,0.00,,---,0.00,VWS V14.01,2013-07-25 06:00:00,
2013-07-25 02:04:00,62.4,25.2,29.94,NNW,338,3.4,4.9,24,0.00,,---,0.00,VWS V14.01,2013-07-25 06:04:00,
2013-07-25 02:09:00,62.2,25.0,29.94,North,0,3.4,5.4,24,0.00,,---,0.00,VWS V14.01,2013-07-25 06:09:00,
2013-07-25 02:10:00,62.2,25.0,29.94,NNW,338,5.4,5.4,24,0.00,,---,0.00,VWS V14.01,2013-07-25 06:10:00,
2013-07-25 02:15:00,62.2,25.0,29.91,ENE,68,4.3,5.4,24,0.00,,---,0.00,VWS V14.01,2013-07-25 06:15:00,
2013-07-25 02:19:00,62.1,24.9,29.91,North,0,3.6,3.6,24,0.00,,---,0.00,VWS V14.01,2013-07-25 06:19:00,
2013-07-25 02:20:00,62.2,25.0,29.91,North,0,2.0,5.6,24,0.00,,---,0.00,VWS V14.01,2013-07-25 06:20:00,
2013-07-25 02:25:00,62.1,24.9,29.91,North,0,2.0,4.9,24,0.00,,---,0.00,VWS V14.01,2013-07-25 06:25:00,
2013-07-25 02:30:00,61.9,24.7,29.91,NW,315,3.6,6.3,24,0.00,,---,0.00,VWS V14.01,2013-07-25 06:30:00,
2013-07-25 02:35:00,61.9,24.7,29.91,NNW,338,3.6,6.3,24,0.00,,---,0.00,VWS V14.01,2013-07-25 06:35:00,
2013-07-25 02:40:00,61.9,24.7,29.91,North,0,4.3,4.3,24,0.00,,---,0.00,VWS V14.01,2013-07-25 06:40:00,
2013-07-25 02:45:00,61.9,24.7,29.91,North,0,2.5,5.4,24,0.00,,---,0.00,VWS V14.01,2013-07-25 06:45:00,
2013-07-25 02:50:00,61.9,24.7,29.91,North,0,2.5,6.5,24,0.00,,---,0.00,VWS V14.01,2013-07-25 06:50:00,
2013-07-25 02:55:00,61.9,24.7,29.91,NW,315,2.9,6.5,24,0.00,,---,0.00,VWS V14.01,2013-07-25 06:55:00,
2013-07-25 03:00:00,61.7,24.6,29.91,East,90,0.0,2.5,24,0.00,,---,0.00,VWS V14.01,2013-07-25 07:00:00,
2013-07-25 03:05:00,61.7,24.6,29.91,NW,315,1.1,4.9,24,0.00,,---,0.00,VWS V14.01,2013-07-25 07:05:00,
2013-07-25 03:10:00,61.7,24.6,29.91,NNE,22,2.0,4.9,24,0.00,,---,0.00,VWS V14.01,2013-07-25 07:10:00,
2013-07-25 03:11:00,61.7,24.6,29.91,NW,315,3.4,4.0,24,0.00,,---,0.00,VWS V14.01,2013-07-25 07:11:00,
2013-07-25 03:16:00,61.7,24.6,29.91,North,0,4.9,5.6,24,0.00,,---,0.00,VWS V14.01,2013-07-25 07:16:00,
2013-07-25 03:20:00,61.7,24.6,29.91,NNE,22,1.6,5.6,24,0.00,,---,0.00,VWS V14.01,2013-07-25 07:20:00,
2013-07-25 03:21:00,61.5,24.4,29.91,North,0,4.3,4.9,24,0.00,,---,0.00,VWS V14.01,2013-07-25 07:21:00,
2013-07-25 03:26:00,61.5,24.4,29.91,ENE,68,2.9,5.6,24,0.00,,---,0.00,VWS V14.01,2013-07-25 07:26:00,
2013-07-25 03:30:00,61.3,24.3,29.91,North,0,2.2,5.6,24,0.00,,---,0.00,VWS V14.01,2013-07-25 07:30:00,
2013-07-25 03:31:00,61.3,24.3,29.91,WNW,292,2.2,4.9,24,0.00,,---,0.00,VWS V14.01,2013-07-25 07:31:00,
2013-07-25 03:36:00,61.2,24.1,29.91,ENE,68,2.9,4.9,24,0.00,,---,0.00,VWS V14.01,2013-07-25 07:36:00,
2013-07-25 03:40:00,61.2,24.1,29.91,NNE,22,2.5,6.0,24,0.00,,---,0.00,VWS V14.01,2013-07-25 07:40:00,
2013-07-25 03:41:00,61.2,24.1,29.91,ENE,68,1.1,5.8,24,0.00,,---,0.00,VWS V14.01,2013-07-25 07:41:00,
2013-07-25 03:47:00,61.2,24.1,29.91,NNE,22,1.3,7.6,24,0.00,,---,0.00,VWS V14.01,2013-07-25 07:47:00,
2013-07-25 03:50:00,61.0,24.0,29.91,NNE,22,5.4,7.6,24,0.00,,---,0.00,VWS V14.01,2013-07-25 07:50:00,
2013-07-25 03:52:00,61.0,24.0,29.91,East,90,2.2,5.4,24,0.00,,---,0.00,VWS V14.01,2013-07-25 07:52:00,
2013-07-25 03:57:00,61.0,24.0,29.91,NW,315,2.0,5.4,24,0.00,,---,0.00,VWS V14.01,2013-07-25 07:57:00,
2013-07-25 04:00:00,61.0,24.0,29.91,SW,225,2.5,5.4,24,0.00,,---,0.00,VWS V14.01,2013-07-25 08:00:00,
2013-07-25 04:02:00,60.8,23.8,29.94,ENE,68,0.9,3.6,24,0.00,,---,0.00,VWS V14.01,2013-07-25 08:02:00,
2013-07-25 04:07:00,60.8,23.8,29.94,NE,45,3.6,4.9,24,0.00,,---,0.00,VWS V14.01,2013-07-25 08:07:00,
2013-07-25 04:10:00,60.8,23.8,29.94,NE,45,2.0,4.9,24,0.00,,---,0.00,VWS V14.01,2013-07-25 08:10:00,
2013-07-25 04:12:00,60.6,23.6,29.94,NE,45,3.1,3.8,24,0.00,,---,0.00,VWS V14.01,2013-07-25 08:12:00,
2013-07-25 04:17:00,60.8,23.8,29.91,North,0,2.5,5.4,24,0.00,,---,0.00,VWS V14.01,2013-07-25 08:17:00,
2013-07-25 04:20:00,60.8,23.8,29.91,NNW,338,3.8,5.4,24,0.00,,---,0.00,VWS V14.01,2013-07-25 08:20:00,
2013-07-25 04:22:00,60.8,23.8,29.91,NW,315,2.2,6.3,24,0.00,,---,0.00,VWS V14.01,2013-07-25 08:22:00,
2013-07-25 04:27:00,60.8,23.8,29.91,East,90,2.9,6.3,24,0.00,,---,0.00,VWS V14.01,2013-07-25 08:27:00,
2013-07-25 04:30:00,60.8,23.8,29.91,NE,45,2.0,6.3,24,0.00,,---,0.00,VWS V14.01,2013-07-25 08:30:00,
2013-07-25 04:32:00,60.8,23.8,29.91,North,0,3.8,3.8,24,0.00,,---,0.00,VWS V14.01,2013-07-25 08:32:00,
2013-07-25 04:37:00,60.8,23.8,29.91,North,0,1.1,4.3,24,0.00,,---,0.00,VWS V14.01,2013-07-25 08:37:00,
2013-07-25 04:40:00,60.8,23.8,29.91,NNE,22,2.5,4.3,24,0.00,,---,0.00,VWS V14.01,2013-07-25 08:40:00,
2013-07-25 04:42:00,60.8,23.8,29.91,West,270,1.3,4.7,24,0.00,,---,0.00,VWS V14.01,2013-07-25 08:42:00,
2013-07-25 04:47:00,60.8,23.8,29.94,ENE,68,2.9,5.8,24,0.00,,---,0.00,VWS V14.01,2013-07-25 08:47:00,
2013-07-25 04:50:00,60.8,23.8,29.94,NE,45,1.6,5.8,24,0.00,,---,0.00,VWS V14.01,2013-07-25 08:50:00,
2013-07-25 04:52:00,60.8,23.8,29.94,NE,45,2.2,2.7,24,0.00,,---,0.00,VWS V14.01,2013-07-25 08:52:00,
2013-07-25 04:57:00,60.6,24.6,29.94,ENE,68,1.6,2.7,25,0.00,,---,0.00,VWS V14.01,2013-07-25 08:57:00,
2013-07-25 05:00:00,60.6,24.6,29.94,ENE,68,2.0,2.7,25,0.00,,---,0.00,VWS V14.01,2013-07-25 09:00:00,
2013-07-25 05:02:00,60.6,24.6,29.94,WSW,248,1.1,3.4,25,0.00,,---,0.00,VWS V14.01,2013-07-25 09:02:00,
2013-07-25 05:07:00,60.6,24.6,29.94,North,0,3.6,3.8,25,0.00,,---,0.00,VWS V14.01,2013-07-25 09:07:00,
2013-07-25 05:10:00,60.6,24.6,29.94,NNW,338,2.9,4.5,25,0.00,,---,0.00,VWS V14.01,2013-07-25 09:10:00,
2013-07-25 05:12:00,60.6,24.6,29.94,NW,315,2.9,4.7,25,0.00,,---,0.00,VWS V14.01,2013-07-25 09:12:00,
2013-07-25 05:18:00,60.4,24.5,29.91,NE,45,1.1,5.4,25,0.00,,---,0.00,VWS V14.01,2013-07-25 09:18:00,
2013-07-25 05:20:00,60.4,24.5,29.91,ESE,112,0.0,5.4,25,0.00,,---,0.00,VWS V14.01,2013-07-25 09:20:00,
2013-07-25 05:23:00,60.4,24.5,29.91,ENE,68,6.0,6.0,25,0.00,,---,0.00,VWS V14.01,2013-07-25 09:23:00,
2013-07-25 05:28:00,60.4,24.5,29.91,ENE,68,0.9,6.0,25,0.00,,---,0.00,VWS V14.01,2013-07-25 09:28:00,
2013-07-25 05:30:00,60.4,24.5,29.91,NE,45,2.5,6.0,25,0.00,,---,0.00,VWS V14.01,2013-07-25 09:30:00,
2013-07-25 05:33:00,60.4,24.5,29.94,NNE,22,1.1,2.9,25,0.00,,---,0.00,VWS V14.01,2013-07-25 09:33:00,
2013-07-25 05:38:00,60.4,24.5,29.94,North,0,0.0,2.9,25,0.00,,---,0.00,VWS V14.01,2013-07-25 09:38:00,
2013-07-25 05:40:00,60.3,24.3,29.94,ENE,68,2.7,2.9,25,0.00,,---,0.00,VWS V14.01,2013-07-25 09:40:00,
2013-07-25 05:43:00,60.3,24.3,29.94,NNE,22,4.0,4.0,25,0.00,,---,0.00,VWS V14.01,2013-07-25 09:43:00,
2013-07-25 05:48:00,60.4,24.5,29.94,North,0,2.9,4.0,25,0.00,,---,0.00,VWS V14.01,2013-07-25 09:48:00,
2013-07-25 05:50:00,60.4,24.5,29.94,North,0,2.2,4.0,25,0.00,,---,0.00,VWS V14.01,2013-07-25 09:50:00,
2013-07-25 05:53:00,60.4,24.5,29.94,NE,45,2.5,3.4,25,0.00,,---,0.00,VWS V14.01,2013-07-25 09:53:00,
2013-07-25 05:58:00,60.4,24.5,29.94,North,0,2.9,4.0,25,0.00,,---,0.00,VWS V14.01,2013-07-25 09:58:00,
2013-07-25 06:00:00,60.4,24.5,29.94,North,0,5.4,5.4,25,0.00,,---,0.00,VWS V14.01,2013-07-25 10:00:00,
2013-07-25 06:03:00,60.4,24.5,29.94,East,90,2.7,5.4,25,0.00,,---,0.00,VWS V14.01,2013-07-25 10:03:00,
2013-07-25 06:08:00,60.3,24.3,29.94,NNE,22,1.6,5.4,25,0.00,,---,0.00,VWS V14.01,2013-07-25 10:08:00,
2013-07-25 06:10:00,60.3,24.3,29.94,WNW,292,1.3,5.4,25,0.00,,---,0.00,VWS V14.01,2013-07-25 10:10:00,
2013-07-25 06:13:00,60.3,25.3,29.94,North,0,2.7,3.8,26,0.00,,---,0.00,VWS V14.01,2013-07-25 10:13:00,
2013-07-25 06:18:00,60.3,25.3,29.94,North,0,2.5,4.3,26,0.00,,---,0.00,VWS V14.01,2013-07-25 10:18:00,
2013-07-25 06:20:00,60.3,25.3,29.94,NNE,22,2.2,4.3,26,0.00,,---,0.00,VWS V14.01,2013-07-25 10:20:00,
2013-07-25 06:24:00,60.3,25.3,29.94,East,90,2.7,5.4,26,0.00,,---,0.00,VWS V14.01,2013-07-25 10:24:00,
2013-07-25 06:29:00,60.4,25.4,29.94,NNE,22,2.5,2.7,26,0.00,,---,0.00,VWS V14.01,2013-07-25 10:29:00,
2013-07-25 06:30:00,60.4,25.4,29.94,North,0,2.7,5.8,26,0.00,,---,0.00,VWS V14.01,2013-07-25 10:30:00,
2013-07-25 06:34:00,60.4,25.4,29.94,East,90,2.0,4.0,26,0.00,,---,0.00,VWS V14.01,2013-07-25 10:34:00,
2013-07-25 06:39:00,60.6,25.6,29.94,NE,45,3.6,3.8,26,0.00,,---,0.00,VWS V14.01,2013-07-25 10:39:00,
2013-07-25 06:40:00,60.6,25.6,29.94,NNE,22,3.8,4.3,26,0.00,,---,0.00,VWS V14.01,2013-07-25 10:40:00,
2013-07-25 06:44:00,60.6,25.6,29.94,North,0,4.0,4.3,26,0.00,,---,0.00,VWS V14.01,2013-07-25 10:44:00,
2013-07-25 06:49:00,60.8,25.7,29.94,NNE,22,3.1,3.1,26,0.00,,---,0.00,VWS V14.01,2013-07-25 10:49:00,
2013-07-25 06:50:00,60.8,25.7,29.94,NNE,22,2.7,4.3,26,0.00,,---,0.00,VWS V14.01,2013-07-25 10:50:00,
2013-07-25 06:54:00,61.0,25.9,29.94,West,270,0.0,5.4,26,0.00,,---,0.00,VWS V14.01,2013-07-25 10:54:00,
2013-07-25 07:00:00,61.0,25.9,29.97,NW,315,2.7,2.7,26,0.00,,---,0.00,VWS V14.01,2013-07-25 11:00:00,
2013-07-25 07:05:00,61.0,25.9,29.97,NNW,338,0.0,2.9,26,0.00,,---,0.00,VWS V14.01,2013-07-25 11:05:00,
2013-07-25 07:10:00,61.2,26.0,29.97,NW,315,3.4,5.4,26,0.00,,---,0.00,VWS V14.01,2013-07-25 11:10:00,
2013-07-25 07:15:00,61.3,26.2,29.97,ENE,68,6.0,6.0,26,0.00,,---,0.00,VWS V14.01,2013-07-25 11:15:00,
2013-07-25 07:20:00,61.3,26.2,29.97,ENE,68,2.9,4.3,26,0.00,,---,0.00,VWS V14.01,2013-07-25 11:20:00,
2013-07-25 07:25:00,61.3,26.2,29.97,NNW,338,3.1,4.9,26,0.00,,---,0.00,VWS V14.01,2013-07-25 11:25:00,
2013-07-25 07:30:00,61.3,26.2,29.97,NW,315,3.8,7.6,26,0.00,,---,0.00,VWS V14.01,2013-07-25 11:30:00,
2013-07-25 07:35:00,61.5,26.3,29.97,North,0,0.9,7.6,26,0.00,,---,0.00,VWS V14.01,2013-07-25 11:35:00,
2013-07-25 07:40:00,61.7,26.5,29.97,North,0,2.5,4.7,26,0.00,,---,0.00,VWS V14.01,2013-07-25 11:40:00,
2013-07-25 07:45:00,61.7,26.5,29.97,NE,45,2.9,7.6,26,0.00,,---,0.00,VWS V14.01,2013-07-25 11:45:00,
2013-07-25 07:50:00,62.1,25.9,29.97,ENE,68,4.3,4.7,25,0.00,,---,0.00,VWS V14.01,2013-07-25 11:50:00,
2013-07-25 07:55:00,62.2,26.0,29.97,NE,45,5.8,5.8,25,0.00,,---,0.00,VWS V14.01,2013-07-25 11:55:00,
2013-07-25 08:00:00,62.4,26.2,29.97,ENE,68,2.5,5.8,25,0.00,,---,0.00,VWS V14.01,2013-07-25 12:00:00,
2013-07-25 08:01:00,62.4,26.2,29.94,North,0,4.3,4.9,25,0.00,,---,0.00,VWS V14.01,2013-07-25 12:01:00,
2013-07-25 08:06:00,62.4,26.2,29.94,NE,45,3.1,5.8,25,0.00,,---,0.00,VWS V14.01,2013-07-25 12:06:00,
2013-07-25 08:10:00,62.4,26.2,29.94,NNW,338,3.4,6.0,25,0.00,,---,0.00,VWS V14.01,2013-07-25 12:10:00,
2013-07-25 08:11:00,62.6,26.3,29.94,NE,45,2.9,6.0,25,0.00,,---,0.00,VWS V14.01,2013-07-25 12:11:00,
2013-07-25 08:16:00,62.6,25.3,29.97,North,0,1.3,6.3,24,0.00,,---,0.00,VWS V14.01,2013-07-25 12:16:00,
2013-07-25 08:20:00,62.6,25.3,29.97,North,0,4.3,6.3,24,0.00,,---,0.00,VWS V14.01,2013-07-25 12:20:00,
2013-07-25 08:21:00,62.6,25.3,29.97,NE,45,8.5,9.0,24,0.00,,---,0.00,VWS V14.01,2013-07-25 12:21:00,
2013-07-25 08:26:00,63.0,25.6,29.97,East,90,4.0,9.0,24,0.00,,---,0.00,VWS V14.01,2013-07-25 12:26:00,
2013-07-25 08:30:00,63.0,25.6,29.97,East,90,10.1,10.1,24,0.00,,---,0.00,VWS V14.01,2013-07-25 12:30:00,
2013-07-25 08:31:00,63.1,25.8,29.97,NNE,22,1.6,10.1,24,0.00,,---,0.00,VWS V14.01,2013-07-25 12:31:00,
2013-07-25 08:37:00,63.1,25.8,29.97,NE,45,4.3,10.1,24,0.00,,---,0.00,VWS V14.01,2013-07-25 12:37:00,
2013-07-25 08:40:00,63.3,25.9,29.97,ENE,68,4.5,10.1,24,0.00,,---,0.00,VWS V14.01,2013-07-25 12:40:00,
2013-07-25 08:42:00,63.5,26.1,29.97,ENE,68,4.3,8.7,24,0.00,,---,0.00,VWS V14.01,2013-07-25 12:42:00,
2013-07-25 08:47:00,63.5,26.1,29.97,North,0,2.5,8.7,24,0.00,,---,0.00,VWS V14.01,2013-07-25 12:47:00,
2013-07-25 08:50:00,63.7,26.2,29.97,NE,45,4.9,8.7,24,0.00,,---,0.00,VWS V14.01,2013-07-25 12:50:00,
2013-07-25 08:52:00,63.9,26.4,29.97,East,90,2.9,6.3,24,0.00,,---,0.00,VWS V14.01,2013-07-25 12:52:00,
2013-07-25 08:57:00,63.9,26.4,29.97,ENE,68,11.9,11.9,24,0.00,,---,0.00,VWS V14.01,2013-07-25 12:57:00,
2013-07-25 09:00:00,63.9,26.4,29.97,NNE,22,5.6,11.9,24,0.00,,---,0.00,VWS V14.01,2013-07-25 13:00:00,
2013-07-25 09:02:00,63.9,26.4,29.97,NNW,338,3.6,9.0,24,0.00,,---,0.00,VWS V14.01,2013-07-25 13:02:00,
2013-07-25 09:07:00,63.9,26.4,29.97,NE,45,5.8,11.2,24,0.00,,---,0.00,VWS V14.01,2013-07-25 13:07:00,
2013-07-25 09:10:00,63.9,26.4,29.97,NE,45,5.4,11.2,24,0.00,,---,0.00,VWS V14.01,2013-07-25 13:10:00,
2013-07-25 09:12:00,64.0,26.5,29.97,East,90,2.7,10.3,24,0.00,,---,0.00,VWS V14.01,2013-07-25 13:12:00,
2013-07-25 09:17:00,64.6,26.0,29.97,ENE,68,7.8,10.3,23,0.00,,---,0.00,VWS V14.01,2013-07-25 13:17:00,
2013-07-25 09:20:00,64.4,25.8,29.97,ENE,68,10.5,10.5,23,0.00,,---,0.00,VWS V14.01,2013-07-25 13:20:00,
2013-07-25 09:22:00,64.4,25.8,29.97,East,90,4.9,10.5,23,0.00,,---,0.00,VWS V14.01,2013-07-25 13:22:00,
2013-07-25 09:27:00,64.8,26.1,29.97,ENE,68,8.1,10.5,23,0.00,,---,0.00,VWS V14.01,2013-07-25 13:27:00,
2013-07-25 09:30:00,64.8,26.1,29.97,NE,45,4.9,10.5,23,0.00,,---,0.00,VWS V14.01,2013-07-25 13:30:00,
2013-07-25 09:32:00,64.9,26.3,29.97,ENE,68,6.5,8.5,23,0.00,,---,0.00,VWS V14.01,2013-07-25 13:32:00,
2013-07-25 09:37:00,65.1,26.4,29.97,East,90,7.6,8.5,23,0.00,,---,0.00,VWS V14.01,2013-07-25 13:37:00,
2013-07-25 09:40:00,64.9,26.3,29.97,East,90,5.6,8.5,23,0.00,,---,0.00,VWS V14.01,2013-07-25 13:40:00,
2013-07-25 09:42:00,64.9,26.3,29.97,North,0,3.6,7.8,23,0.00,,---,0.00,VWS V14.01,2013-07-25 13:42:00,
2013-07-25 09:47:00,64.8,26.1,29.97,North,0,7.2,11.0,23,0.00,,---,0.00,VWS V14.01,2013-07-25 13:47:00,
2013-07-25 09:50:00,64.8,26.1,29.97,ENE,68,7.8,11.0,23,0.00,,---,0.00,VWS V14.01,2013-07-25 13:50:00,
2013-07-25 09:52:00,64.8,26.1,29.97,East,90,4.3,7.8,23,0.00,,---,0.00,VWS V14.01,2013-07-25 13:52:00,
2013-07-25 09:57:00,64.9,26.3,29.97,NE,45,7.2,8.7,23,0.00,,---,0.00,VWS V14.01,2013-07-25 13:57:00,
2013-07-25 10:00:00,65.1,26.4,29.97,ENE,68,2.7,8.7,23,0.00,,---,0.00,VWS V14.01,2013-07-25 14:00:00,
2013-07-25 10:03:00,65.1,26.4,30.00,NE,45,2.2,6.0,23,0.00,,---,0.00,VWS V14.01,2013-07-25 14:03:00,
2013-07-25 10:08:00,65.3,26.6,30.00,NE,45,5.6,9.8,23,0.00,,---,0.00,VWS V14.01,2013-07-25 14:08:00,
2013-07-25 10:10:00,65.5,26.7,30.00,East,90,6.7,9.8,23,0.00,,---,0.00,VWS V14.01,2013-07-25 14:10:00,
2013-07-25 10:13:00,65.8,27.0,30.00,East,90,4.9,7.6,23,0.00,,---,0.00,VWS V14.01,2013-07-25 14:13:00,
2013-07-25 10:18:00,66.2,26.3,30.00,East,90,7.4,7.6,22,0.00,,---,0.00,VWS V14.01,2013-07-25 14:18:00,
2013-07-25 10:20:00,66.2,26.3,30.00,NE,45,3.6,7.6,22,0.00,,---,0.00,VWS V14.01,2013-07-25 14:20:00,
2013-07-25 10:23:00,65.8,27.0,30.00,NE,45,7.6,12.1,23,0.00,,---,0.00,VWS V14.01,2013-07-25 14:23:00,
2013-07-25 10:28:00,66.0,27.2,30.00,NE,45,6.3,12.1,23,0.00,,---,0.00,VWS V14.01,2013-07-25 14:28:00,
2013-07-25 10:30:00,66.0,27.2,30.00,WSW,248,4.0,12.1,23,0.00,,---,0.00,VWS V14.01,2013-07-25 14:30:00,
2013-07-25 10:33:00,65.8,27.0,29.97,ESE,112,9.2,10.1,23,0.00,,---,0.00,VWS V14.01,2013-07-25 14:33:00,
2013-07-25 10:38:00,65.7,26.9,29.97,NE,45,2.2,10.3,23,0.00,,---,0.00,VWS V14.01,2013-07-25 14:38:00,
2013-07-25 10:40:00,65.7,26.9,29.97,NE,45,4.3,10.3,23,0.00,,---,0.00,VWS V14.01,2013-07-25 14:40:00,
2013-07-25 10:43:00,65.7,26.9,29.97,NNE,22,2.5,6.3,23,0.00,,---,0.00,VWS V14.01,2013-07-25 14:43:00,
2013-07-25 10:48:00,65.7,26.9,30.00,ENE,68,4.7,7.6,23,0.00,,---,0.00,VWS V14.01,2013-07-25 14:48:00,
2013-07-25 10:50:00,65.7,26.9,30.00,East,90,2.7,7.6,23,0.00,,---,0.00,VWS V14.01,2013-07-25 14:50:00,
2013-07-25 10:53:00,65.7,26.9,30.00,ENE,68,8.1,8.1,23,0.00,,---,0.00,VWS V14.01,2013-07-25 14:53:00,
2013-07-25 10:58:00,65.7,26.9,30.00,ENE,68,6.5,10.7,23,0.00,,---,0.00,VWS V14.01,2013-07-25 14:58:00,
2013-07-25 11:00:00,65.7,26.9,30.00,East,90,6.3,10.7,23,0.00,,---,0.00,VWS V14.01,2013-07-25 15:00:00,
2013-07-25 11:04:00,65.8,27.0,30.00,NE,45,6.7,8.7,23,0.00,,---,0.00,VWS V14.01,2013-07-25 15:04:00,
2013-07-25 11:09:00,65.7,26.9,30.00,East,90,5.8,11.9,23,0.00,,---,0.00,VWS V14.01,2013-07-25 15:09:00,
2013-07-25 11:10:00,65.7,26.9,30.00,ENE,68,4.3,11.9,23,0.00,,---,0.00,VWS V14.01,2013-07-25 15:10:00,
2013-07-25 11:14:00,65.8,27.0,30.00,East,90,6.0,10.3,23,0.00,,---,0.00,VWS V14.01,2013-07-25 15:14:00,
2013-07-25 11:19:00,66.2,26.3,29.97,East,90,7.4,10.3,22,0.00,,---,0.00,VWS V14.01,2013-07-25 15:19:00,
2013-07-25 11:20:00,66.2,26.3,29.97,East,90,7.4,10.3,22,0.00,,---,0.00,VWS V14.01,2013-07-25 15:20:00,
2013-07-25 11:24:00,66.2,26.3,29.97,ENE,68,7.2,9.6,22,0.00,,---,0.00,VWS V14.01,2013-07-25 15:24:00,
2013-07-25 11:29:00,66.0,27.2,29.97,East,90,3.6,3.6,23,0.00,,---,0.00,VWS V14.01,2013-07-25 15:29:00,
2013-07-25 11:30:00,66.0,27.2,29.97,ENE,68,3.1,9.6,23,0.00,,---,0.00,VWS V14.01,2013-07-25 15:30:00,
2013-07-25 11:34:00,65.8,27.0,30.03,NNW,338,6.5,9.8,23,0.00,,---,0.00,VWS V14.01,2013-07-25 15:34:00,
2013-07-25 11:39:00,65.7,26.9,30.03,ESE,112,5.4,8.5,23,0.00,,---,0.00,VWS V14.01,2013-07-25 15:39:00,
2013-07-25 11:40:00,65.7,26.9,30.03,NE,45,5.4,9.8,23,0.00,,---,0.00,VWS V14.01,2013-07-25 15:40:00,
2013-07-25 11:44:00,65.7,26.9,30.03,ENE,68,2.7,8.7,23,0.00,,---,0.00,VWS V14.01,2013-07-25 15:44:00,
2013-07-25 11:49:00,65.8,27.0,30.03,ESE,112,3.8,4.9,23,0.00,,---,0.00,VWS V14.01,2013-07-25 15:49:00,
2013-07-25 11:50:00,65.8,27.0,30.03,ENE,68,4.9,8.7,23,0.00,,---,0.00,VWS V14.01,2013-07-25 15:50:00,
2013-07-25 11:54:00,66.0,27.2,30.03,NNW,338,3.1,7.2,23,0.00,,---,0.00,VWS V14.01,2013-07-25 15:54:00,
2013-07-25 11:59:00,66.2,27.3,30.03,ENE,68,3.6,4.7,23,0.00,,---,0.00,VWS V14.01,2013-07-25 15:59:00,
2013-07-25 12:00:00,66.2,27.3,30.03,East,90,4.0,7.2,23,0.00,,---,0.00,VWS V14.01,2013-07-25 16:00:00,
2013-07-25 12:04:00,66.4,26.4,30.03,East,90,8.5,8.7,22,0.00,,---,0.00,VWS V14.01,2013-07-25 16:04:00,
2013-07-25 12:10:00,66.4,26.4,30.03,NE,45,8.7,8.7,22,0.00,,---,0.00,VWS V14.01,2013-07-25 16:10:00,
2013-07-25 12:15:00,66.9,26.9,30.03,NNE,22,3.6,9.6,22,0.00,,---,0.00,VWS V14.01,2013-07-25 16:15:00,
2013-07-25 12:20:00,67.3,27.2,30.03,ENE,68,4.3,8.5,22,0.00,,---,0.00,VWS V14.01,2013-07-25 16:20:00,
2013-07-25 12:25:00,67.3,27.2,30.03,NE,45,8.7,9.4,22,0.00,,---,0.00,VWS V14.01,2013-07-25 16:25:00,
2013-07-25 12:30:00,66.9,26.9,30.03,NE,45,10.3,10.3,22,0.00,,---,0.00,VWS V14.01,2013-07-25 16:30:00,
2013-07-25 12:35:00,66.6,26.6,30.03,NE,45,10.3,10.5,22,0.00,,---,0.00,VWS V14.01,2013-07-25 16:35:00,
2013-07-25 12:40:00,67.3,27.2,30.03,NE,45,5.4,8.7,22,0.00,,---,0.00,VWS V14.01,2013-07-25 16:40:00,
2013-07-25 12:45:00,67.3,27.2,30.03,ENE,68,3.4,8.7,22,0.00,,---,0.00,VWS V14.01,2013-07-25 16:45:00,
2013-07-25 12:50:00,67.6,27.5,30.03,ENE,68,4.7,8.7,22,0.00,,---,0.00,VWS V14.01,2013-07-25 16:50:00,
2013-07-25 12:51:00,68.0,27.8,30.03,ENE,68,6.7,8.5,22,0.00,,---,0.00,VWS V14.01,2013-07-25 16:51:00,
2013-07-25 12:56:00,68.2,27.9,30.03,NW,315,4.7,8.5,22,0.00,,---,0.00,VWS V14.01,2013-07-25 16:56:00,
2013-07-25 13:00:00,68.0,27.8,30.03,NE,45,6.3,8.5,22,0.00,,---,0.00,VWS V14.01,2013-07-25 17:00:00,
2013-07-25 13:01:00,68.0,27.8,30.00,ENE,68,7.6,10.7,22,0.00,,---,0.00,VWS V14.01,2013-07-25 17:01:00,
2013-07-25 13:06:00,68.4,28.1,30.00,ENE,68,3.1,10.7,22,0.00,,---,0.00,VWS V14.01,2013-07-25 17:06:00,
2013-07-25 13:10:00,67.8,27.6,30.00,ESE,112,7.8,10.7,22,0.00,,---,0.00,VWS V14.01,2013-07-25 17:10:00,
2013-07-25 13:11:00,68.0,27.8,30.00,East,90,5.4,12.8,22,0.00,,---,0.00,VWS V14.01,2013-07-25 17:11:00,
2013-07-25 13:16:00,67.8,27.6,30.03,ENE,68,6.5,12.8,22,0.00,,---,0.00,VWS V14.01,2013-07-25 17:16:00,
2013-07-25 13:20:00,68.2,27.9,30.03,ENE,68,5.6,12.8,22,0.00,,---,0.00,VWS V14.01,2013-07-25 17:20:00,
2013-07-25 13:21:00,68.0,27.8,30.03,NE,45,5.6,7.6,22,0.00,,---,0.00,VWS V14.01,2013-07-25 17:21:00,
2013-07-25 13:26:00,68.2,27.9,30.03,NE,45,7.6,13.0,22,0.00,,---,0.00,VWS V14.01,2013-07-25 17:26:00,
2013-07-25 13:30:00,68.4,28.1,30.03,North,0,3.1,13.0,22,0.00,,---,0.00,VWS V14.01,2013-07-25 17:30:00,
2013-07-25 13:32:00,68.9,28.5,30.03,East,90,5.8,8.1,22,0.00,,---,0.00,VWS V14.01,2013-07-25 17:32:00,
2013-07-25 13:37:00,68.5,28.2,30.03,ENE,68,7.6,14.8,22,0.00,,---,0.00,VWS V14.01,2013-07-25 17:37:00,
2013-07-25 13:40:00,68.5,28.2,30.03,North,0,3.4,14.8,22,0.00,,---,0.00,VWS V14.01,2013-07-25 17:40:00,
2013-07-25 13:42:00,68.0,27.8,30.03,East,90,3.6,8.5,22,0.00,,---,0.00,VWS V14.01,2013-07-25 17:42:00,
2013-07-25 13:47:00,68.5,28.2,30.03,NE,45,4.0,10.1,22,0.00,,---,0.00,VWS V14.01,2013-07-25 17:47:00,
2013-07-25 13:50:00,68.4,28.1,30.03,NNE,22,3.1,10.1,22,0.00,,---,0.00,VWS V14.01,2013-07-25 17:50:00,
2013-07-25 13:52:00,68.5,28.2,30.03,NNE,22,5.8,8.1,22,0.00,,---,0.00,VWS V14.01,2013-07-25 17:52:00,
2013-07-25 13:57:00,68.5,28.2,30.03,North,0,5.8,8.1,22,0.00,,---,0.00,VWS V14.01,2013-07-25 17:57:00,
2013-07-25 14:00:00,68.7,28.4,30.03,ENE,68,5.6,8.1,22,0.00,,---,0.00,VWS V14.01,2013-07-25 18:00:00,
2013-07-25 14:02:00,68.2,27.9,30.03,ENE,68,3.6,10.1,22,0.00,,---,0.00,VWS V14.01,2013-07-25 18:02:00,
2013-07-25 14:07:00,68.0,27.8,30.03,WNW,292,6.5,11.0,22,0.00,,---,0.00,VWS V14.01,2013-07-25 18:07:00,
2013-07-25 14:10:00,68.4,28.1,30.03,NNE,22,5.4,11.0,22,0.00,,---,0.00,VWS V14.01,2013-07-25 18:10:00,
2013-07-25 14:12:00,68.7,28.4,30.03,ENE,68,8.7,8.7,22,0.00,,---,0.00,VWS V14.01,2013-07-25 18:12:00,
2013-07-25 14:17:00,69.1,28.7,30.03,East,90,4.7,8.7,22,0.00,,---,0.00,VWS V14.01,2013-07-25 18:17:00,
2013-07-25 14:20:00,69.3,28.8,30.03,ESE,112,5.6,9.6,22,0.00,,---,0.00,VWS V14.01,2013-07-25 18:20:00,
2013-07-25 14:22:00,68.9,28.5,30.03,NE,45,4.3,9.8,22,0.00,,---,0.00,VWS V14.01,2013-07-25 18:22:00,
2013-07-25 14:27:00,69.1,28.7,30.03,ENE,68,9.6,9.8,22,0.00,,---,0.00,VWS V14.01,2013-07-25 18:27:00,
2013-07-25 14:30:00,69.1,28.7,30.03,North,0,8.1,9.8,22,0.00,,---,0.00,VWS V14.01,2013-07-25 18:30:00,
2013-07-25 14:33:00,69.4,29.0,30.03,ENE,68,3.4,8.1,22,0.00,,---,0.00,VWS V14.01,2013-07-25 18:33:00,
2013-07-25 14:38:00,70.0,29.4,30.03,NNE,22,4.9,8.1,22,0.00,,---,0.00,VWS V14.01,2013-07-25 18:38:00,
2013-07-25 14:40:00,69.8,29.3,30.03,East,90,9.8,9.8,22,0.00,,---,0.00,VWS V14.01,2013-07-25 18:40:00,
2013-07-25 14:43:00,68.5,28.2,30.03,East,90,3.1,10.3,22,0.00,,---,0.00,VWS V14.01,2013-07-25 18:43:00,
2013-07-25 14:48:00,69.4,29.0,30.03,NE,45,4.0,10.3,22,0.00,,---,0.00,VWS V14.01,2013-07-25 18:48:00,
2013-07-25 14:50:00,69.1,28.7,30.03,ENE,68,5.8,10.3,22,0.00,,---,0.00,VWS V14.01,2013-07-25 18:50:00,
2013-07-25 14:53:00,69.4,29.0,30.03,North,0,5.6,6.5,22,0.00,,---,0.00,VWS V14.01,2013-07-25 18:53:00,
2013-07-25 14:58:00,70.0,29.4,30.03,NE,45,7.6,8.5,22,0.00,,---,0.00,VWS V14.01,2013-07-25 18:58:00,
2013-07-25 15:00:00,70.0,29.4,30.03,ENE,68,7.8,8.5,22,0.00,,---,0.00,VWS V14.01,2013-07-25 19:00:00,
2013-07-25 15:03:00,69.3,28.8,30.03,North,0,2.9,8.7,22,0.00,,---,0.00,VWS V14.01,2013-07-25 19:03:00,
2013-07-25 15:08:00,69.8,29.3,30.03,ENE,68,4.7,8.7,22,0.00,,---,0.00,VWS V14.01,2013-07-25 19:08:00,
2013-07-25 15:10:00,70.0,29.4,30.03,NNW,338,3.6,8.7,22,0.00,,---,0.00,VWS V14.01,2013-07-25 19:10:00,
2013-07-25 15:13:00,69.4,29.0,30.03,ENE,68,5.8,7.6,22,0.00,,---,0.00,VWS V14.01,2013-07-25 19:13:00,
2013-07-25 15:18:00,69.4,29.0,30.00,East,90,3.1,9.6,22,0.00,,---,0.00,VWS V14.01,2013-07-25 19:18:00,
2013-07-25 15:20:00,69.4,29.0,30.00,North,0,3.1,9.6,22,0.00,,---,0.00,VWS V14.01,2013-07-25 19:20:00,
2013-07-25 15:23:00,69.8,29.3,30.00,North,0,10.1,10.1,22,0.00,,---,0.00,VWS V14.01,2013-07-25 19:23:00,
2013-07-25 15:29:00,70.2,29.6,30.00,NE,45,11.9,11.9,22,0.00,,---,0.00,VWS V14.01,2013-07-25 19:29:00,
2013-07-25 15:30:00,70.2,29.6,30.00,NE,45,11.9,11.9,22,0.00,,---,0.00,VWS V14.01,2013-07-25 19:30:00,
2013-07-25 15:34:00,70.2,29.6,30.00,NW,315,2.7,11.9,22,0.00,,---,0.00,VWS V14.01,2013-07-25 19:34:00,
2013-07-25 15:39:00,70.0,29.4,30.00,NE,45,4.3,4.3,22,0.00,,---,0.00,VWS V14.01,2013-07-25 19:39:00,
2013-07-25 15:40:00,70.0,29.4,30.00,NE,45,4.3,11.9,22,0.00,,---,0.00,VWS V14.01,2013-07-25 19:40:00,
2013-07-25 15:44:00,70.0,29.4,30.00,NNE,22,3.1,13.0,22,0.00,,---,0.00,VWS V14.01,2013-07-25 19:44:00,
2013-07-25 15:49:00,69.4,29.0,30.00,East,90,4.0,4.0,22,0.00,,---,0.00,VWS V14.01,2013-07-25 19:49:00,
2013-07-25 15:50:00,69.4,29.0,30.00,East,90,4.0,13.0,22,0.00,,---,0.00,VWS V14.01,2013-07-25 19:50:00,
2013-07-25 15:54:00,69.6,29.1,30.00,South,180,3.1,5.4,22,0.00,,---,0.00,VWS V14.01,2013-07-25 19:54:00,
2013-07-25 15:59:00,70.2,29.6,30.00,NE,45,7.4,7.6,22,0.00,,---,0.00,VWS V14.01,2013-07-25 19:59:00,
2013-07-25 16:00:00,70.2,29.6,30.00,NE,45,7.6,8.5,22,0.00,,---,0.00,VWS V14.01,2013-07-25 20:00:00,
2013-07-25 16:04:00,70.2,29.6,30.03,NE,45,3.1,10.5,22,0.00,,---,0.00,VWS V14.01,2013-07-25 20:04:00,
2013-07-25 16:09:00,70.2,29.6,30.03,ENE,68,5.4,7.8,22,0.00,,---,0.00,VWS V14.01,2013-07-25 20:09:00,
2013-07-25 16:10:00,70.2,29.6,30.03,North,0,2.7,10.5,22,0.00,,---,0.00,VWS V14.01,2013-07-25 20:10:00,
2013-07-25 16:14:00,69.8,29.3,30.00,East,90,7.2,10.1,22,0.00,,---,0.00,VWS V14.01,2013-07-25 20:14:00,
2013-07-25 16:19:00,69.8,29.3,30.00,NNE,22,4.3,6.3,22,0.00,,---,0.00,VWS V14.01,2013-07-25 20:19:00,
2013-07-25 16:20:00,69.8,29.3,30.00,NNE,22,6.3,10.1,22,0.00,,---,0.00,VWS V14.01,2013-07-25 20:20:00,
2013-07-25 16:24:00,69.6,29.1,30.00,NE,45,4.9,6.3,22,0.00,,---,0.00,VWS V14.01,2013-07-25 20:24:00,
2013-07-25 16:29:00,69.6,29.1,30.00,ENE,68,5.6,8.1,22,0.00,,---,0.00,VWS V14.01,2013-07-25 20:29:00,
2013-07-25 16:30:00,69.8,29.3,30.00,East,90,6.0,8.5,22,0.00,,---,0.00,VWS V14.01,2013-07-25 20:30:00,
2013-07-25 16:35:00,68.9,28.5,30.00,ENE,68,6.3,10.7,22,0.00,,---,0.00,VWS V14.01,2013-07-25 20:35:00,
2013-07-25 16:39:00,68.9,28.5,30.00,ENE,68,8.7,8.7,22,0.00,,---,0.00,VWS V14.01,2013-07-25 20:39:00,
2013-07-25 16:40:00,68.9,28.5,30.00,ENE,68,3.8,10.7,22,0.00,,---,0.00,VWS V14.01,2013-07-25 20:40:00,
2013-07-25 16:45:00,68.7,28.4,30.00,ENE,68,2.5,8.7,22,0.00,,---,0.00,VWS V14.01,2013-07-25 20:45:00,
2013-07-25 16:50:00,68.7,28.4,30.00,SW,225,1.1,4.0,22,0.00,,---,0.00,VWS V14.01,2013-07-25 20:50:00,
2013-07-25 16:55:00,68.5,28.2,30.00,NE,45,5.4,7.4,22,0.00,,---,0.00,VWS V14.01,2013-07-25 20:55:00,
2013-07-25 17:00:00,68.2,27.9,30.03,ESE,112,3.8,7.6,22,0.00,,---,0.00,VWS V14.01,2013-07-25 21:00:00,
2013-07-25 17:05:00,68.7,28.4,30.03,NE,45,5.4,7.6,22,0.00,,---,0.00,VWS V14.01,2013-07-25 21:05:00,
2013-07-25 17:10:00,68.7,28.4,30.03,NE,45,8.5,8.5,22,0.00,,---,0.00,VWS V14.01,2013-07-25 21:10:00,
2013-07-25 17:15:00,68.2,27.9,30.03,ENE,68,2.9,9.6,22,0.00,,---,0.00,VWS V14.01,2013-07-25 21:15:00,
2013-07-25 17:20:00,68.4,29.1,30.03,East,90,6.5,7.4,23,0.00,,---,0.00,VWS V14.01,2013-07-25 21:20:00,
2013-07-25 17:25:00,68.5,29.3,30.03,NE,45,6.3,7.8,23,0.00,,---,0.00,VWS V14.01,2013-07-25 21:25:00,
2013-07-25 17:30:00,68.2,29.0,30.03,NE,45,6.0,8.1,23,0.00,,---,0.00,VWS V14.01,2013-07-25 21:30:00,
2013-07-25 17:36:00,68.5,29.3,30.03,NE,45,2.7,8.1,23,0.00,,---,0.00,VWS V14.01,2013-07-25 21:36:00,
2013-07-25 17:40:00,68.5,29.3,30.03,NE,45,5.6,8.7,23,0.00,,---,0.00,VWS V14.01,2013-07-25 21:40:00,
2013-07-25 17:41:00,68.4,29.1,30.03,ENE,68,8.7,8.7,23,0.00,,---,0.00,VWS V14.01,2013-07-25 21:41:00,
2013-07-25 17:46:00,67.8,28.7,30.03,East,90,4.7,10.1,23,0.00,,---,0.00,VWS V14.01,2013-07-25 21:46:00,
2013-07-25 17:50:00,67.8,28.7,30.03,North,0,3.8,10.1,23,0.00,,---,0.00,VWS V14.01,2013-07-25 21:50:00,
2013-07-25 17:52:00,68.0,28.9,30.03,ENE,68,10.3,10.3,23,0.00,,---,0.00,VWS V14.01,2013-07-25 21:52:00,
2013-07-25 17:57:00,68.0,28.9,30.03,East,90,4.0,10.3,23,0.00,,---,0.00,VWS V14.01,2013-07-25 21:57:00,
2013-07-25 18:00:00,68.0,28.9,30.03,NE,45,6.5,10.3,23,0.00,,---,0.00,VWS V14.01,2013-07-25 22:00:00,
2013-07-25 18:02:00,68.0,28.9,30.03,ENE,68,8.1,8.1,23,0.00,,---,0.00,VWS V14.01,2013-07-25 22:02:00,
2013-07-25 18:07:00,68.0,28.9,30.03,ENE,68,2.9,10.3,23,0.00,,---,0.00,VWS V14.01,2013-07-25 22:07:00,
2013-07-25 18:10:00,68.0,28.9,30.03,East,90,3.4,10.3,23,0.00,,---,0.00,VWS V14.01,2013-07-25 22:10:00,
2013-07-25 18:12:00,68.0,28.9,30.03,ENE,68,6.0,8.1,23,0.00,,---,0.00,VWS V14.01,2013-07-25 22:12:00,
2013-07-25 18:17:00,67.8,28.7,30.03,NE,45,4.0,8.1,23,0.00,,---,0.00,VWS V14.01,2013-07-25 22:17:00,
2013-07-25 18:20:00,67.8,28.7,30.03,East,90,1.6,8.1,23,0.00,,---,0.00,VWS V14.01,2013-07-25 22:20:00,
2013-07-25 18:22:00,67.6,28.5,30.03,NW,315,2.9,6.3,23,0.00,,---,0.00,VWS V14.01,2013-07-25 22:22:00,
2013-07-25 18:27:00,67.5,28.4,30.03,NNE,22,3.1,6.5,23,0.00,,---,0.00,VWS V14.01,2013-07-25 22:27:00,
2013-07-25 18:30:00,67.5,28.4,30.03,ENE,68,3.6,6.5,23,0.00,,---,0.00,VWS V14.01,2013-07-25 22:30:00,
2013-07-25 18:33:00,67.5,28.4,30.03,ENE,68,3.1,7.8,23,0.00,,---,0.00,VWS V14.01,2013-07-25 22:33:00,
2013-07-25 18:38:00,67.3,28.2,30.03,East,90,5.4,10.3,23,0.00,,---,0.00,VWS V14.01,2013-07-25 22:38:00,
2013-07-25 18:40:00,67.1,28.1,30.03,ENE,68,6.5,10.3,23,0.00,,---,0.00,VWS V14.01,2013-07-25 22:40:00,
2013-07-25 18:42:00,67.1,28.1,30.03,North,0,4.9,9.0,23,0.00,,---,0.00,VWS V14.01,2013-07-25 22:42:00,
2013-07-25 18:48:00,66.9,27.9,30.00,East,90,5.6,9.0,23,0.00,,---,0.00,VWS V14.01,2013-07-25 22:48:00,
2013-07-25 18:50:00,67.1,28.1,30.00,NE,45,6.0,9.0,23,0.00,,---,0.00,VWS V14.01,2013-07-25 22:50:00,
2013-07-25 18:53:00,67.1,29.1,30.00,ENE,68,6.0,7.8,24,0.00,,---,0.00,VWS V14.01,2013-07-25 22:53:00,
2013-07-25 18:58:00,67.3,29.3,30.00,ENE,68,3.6,7.8,24,0.00,,---,0.00,VWS V14.01,2013-07-25 22:58:00,
2013-07-25 19:00:00,67.3,29.3,30.00,North,0,3.6,7.8,24,0.00,,---,0.00,VWS V14.01,2013-07-25 23:00:00,
2013-07-25 19:03:00,67.3,29.3,30.03,NE,45,3.1,7.6,24,0.00,,---,0.00,VWS V14.01,2013-07-25 23:03:00,
2013-07-25 19:08:00,67.3,29.3,30.03,East,90,6.5,8.7,24,0.00,,---,0.00,VWS V14.01,2013-07-25 23:08:00,
2013-07-25 19:10:00,67.3,29.3,30.03,ENE,68,8.1,8.7,24,0.00,,---,0.00,VWS V14.01,2013-07-25 23:10:00,
2013-07-25 19:13:00,67.3,29.3,30.03,East,90,4.7,8.1,24,0.00,,---,0.00,VWS V14.01,2013-07-25 23:13:00,
2013-07-25 19:18:00,67.3,29.3,30.03,ENE,68,4.0,8.1,24,0.00,,---,0.00,VWS V14.01,2013-07-25 23:18:00,
2013-07-25 19:20:00,67.1,29.1,30.03,ESE,112,7.4,8.1,24,0.00,,---,0.00,VWS V14.01,2013-07-25 23:20:00,
2013-07-25 19:23:00,66.9,29.0,30.03,SE,135,3.6,7.6,24,0.00,,---,0.00,VWS V14.01,2013-07-25 23:23:00,
2013-07-25 19:28:00,66.7,28.8,30.03,NE,45,5.4,7.8,24,0.00,,---,0.00,VWS V14.01,2013-07-25 23:28:00,
2013-07-25 19:30:00,66.7,28.8,30.03,NE,45,4.9,7.8,24,0.00,,---,0.00,VWS V14.01,2013-07-25 23:30:00,
2013-07-25 19:33:00,66.7,28.8,30.03,ENE,68,6.5,7.4,24,0.00,,---,0.00,VWS V14.01,2013-07-25 23:33:00,
2013-07-25 19:38:00,66.6,28.7,30.03,ENE,68,5.6,7.4,24,0.00,,---,0.00,VWS V14.01,2013-07-25 23:38:00,
2013-07-25 19:40:00,66.6,28.7,30.03,ENE,68,4.9,7.4,24,0.00,,---,0.00,VWS V14.01,2013-07-25 23:40:00,
2013-07-25 19:43:00,66.6,28.7,30.03,ENE,68,5.6,6.0,24,0.00,,---,0.00,VWS V14.01,2013-07-25 23:43:00,
2013-07-25 19:48:00,66.6,28.7,30.03,ENE,68,4.3,7.8,24,0.00,,---,0.00,VWS V14.01,2013-07-25 23:48:00,
2013-07-25 19:50:00,66.4,28.5,30.03,ENE,68,4.3,7.8,24,0.00,,---,0.00,VWS V14.01,2013-07-25 23:50:00,
2013-07-25 19:53:00,66.4,28.5,30.03,North,0,2.9,8.5,24,0.00,,---,0.00,VWS V14.01,2013-07-25 23:53:00,
2013-07-25 19:58:00,66.2,28.4,30.03,East,90,5.4,8.5,24,0.00,,---,0.00,VWS V14.01,2013-07-25 23:58:00,
2013-07-25 20:00:00,66.2,28.4,30.03,East,90,5.4,8.5,24,0.00,,---,0.00,VWS V14.01,2013-07-26 00:00:00,
2013-07-25 20:04:00,66.2,28.4,30.06,ENE,68,2.7,7.6,24,0.00,,---,0.00,VWS V14.01,2013-07-26 00:04:00,
2013-07-25 20:09:00,66.0,29.2,30.06,NNE,22,5.8,7.6,25,0.00,,---,0.00,VWS V14.01,2013-07-26 00:09:00,
2013-07-25 20:10:00,66.0,29.2,30.06,NNE,22,5.8,7.6,25,0.00,,---,0.00,VWS V14.01,2013-07-26 00:10:00,
2013-07-25 20:14:00,66.0,29.2,30.06,SE,135,3.8,5.8,25,0.00,,---,0.00,VWS V14.01,2013-07-26 00:14:00,
2013-07-25 20:19:00,65.8,29.1,30.03,NE,45,3.6,5.8,25,0.00,,---,0.00,VWS V14.01,2013-07-26 00:19:00,
2013-07-25 20:20:00,65.8,29.1,30.03,NE,45,3.6,5.8,25,0.00,,---,0.00,VWS V14.01,2013-07-26 00:20:00,
2013-07-25 20:24:00,65.8,29.1,30.03,NNE,22,5.6,6.0,25,0.00,,---,0.00,VWS V14.01,2013-07-26 00:24:00,
2013-07-25 20:29:00,65.8,29.1,30.03,ENE,68,3.6,3.6,25,0.00,,---,0.00,VWS V14.01,2013-07-26 00:29:00,
2013-07-25 20:30:00,65.8,29.1,30.03,NE,45,3.1,7.2,25,0.00,,---,0.00,VWS V14.01,2013-07-26 00:30:00,
2013-07-25 20:34:00,65.8,29.1,30.00,NW,315,3.4,4.9,25,0.00,,---,0.00,VWS V14.01,2013-07-26 00:34:00,
2013-07-25 20:39:00,66.0,29.2,30.00,ENE,68,4.0,5.6,25,0.00,,---,0.00,VWS V14.01,2013-07-26 00:39:00,
2013-07-25 20:40:00,65.8,29.1,30.00,East,90,4.0,4.9,25,0.00,,---,0.00,VWS V14.01,2013-07-26 00:40:00,
2013-07-25 20:44:00,66.0,29.2,30.00,North,0,2.7,5.6,25,0.00,,---,0.00,VWS V14.01,2013-07-26 00:44:00,
2013-07-25 20:49:00,66.0,29.2,30.00,North,0,3.6,7.2,25,0.00,,---,0.00,VWS V14.01,2013-07-26 00:49:00,
2013-07-25 20:50:00,66.0,29.2,30.00,North,0,6.0,6.0,25,0.00,,---,0.00,VWS V14.01,2013-07-26 00:50:00,
2013-07-25 20:54:00,65.8,29.1,30.00,ENE,68,2.9,7.2,25,0.00,,---,0.00,VWS V14.01,2013-07-26 00:54:00,
2013-07-25 20:59:00,66.0,29.2,30.03,NNE,22,2.7,3.1,25,0.00,,---,0.00,VWS V14.01,2013-07-26 00:59:00,
2013-07-25 21:00:00,66.0,29.2,30.00,NE,45,3.1,8.1,25,0.00,,---,0.00,VWS V14.01,2013-07-26 01:00:00,
2013-07-25 21:04:00,65.8,29.1,30.03,ENE,68,3.1,7.8,25,0.00,,---,0.00,VWS V14.01,2013-07-26 01:04:00,
2013-07-25 21:09:00,66.0,30.2,30.03,North,0,3.4,4.3,26,0.00,,---,0.00,VWS V14.01,2013-07-26 01:09:00,
2013-07-25 21:10:00,66.0,30.2,30.03,North,0,2.9,7.8,26,0.00,,---,0.00,VWS V14.01,2013-07-26 01:10:00,
2013-07-25 21:15:00,65.8,30.0,30.03,ENE,68,2.9,5.8,26,0.00,,---,0.00,VWS V14.01,2013-07-26 01:15:00,
2013-07-25 21:20:00,66.0,30.2,30.03,ENE,68,5.4,7.8,26,0.00,,---,0.00,VWS V14.01,2013-07-26 01:20:00,
2013-07-25 21:25:00,65.8,30.0,30.03,ENE,68,7.4,7.8,26,0.00,,---,0.00,VWS V14.01,2013-07-26 01:25:00,
2013-07-25 21:30:00,65.8,30.0,30.03,ENE,68,2.7,5.8,26,0.00,,---,0.00,VWS V14.01,2013-07-26 01:30:00,
2013-07-25 21:35:00,65.8,30.0,30.03,East,90,3.4,6.0,26,0.00,,---,0.00,VWS V14.01,2013-07-26 01:35:00,
2013-07-25 21:40:00,65.8,30.0,30.03,NE,45,6.9,8.7,26,0.00,,---,0.00,VWS V14.01,2013-07-26 01:40:00,
2013-07-25 21:45:00,66.0,30.2,30.03,NE,45,3.1,8.7,26,0.00,,---,0.00,VWS V14.01,2013-07-26 01:45:00,
2013-07-25 21:50:00,66.0,30.2,30.03,ENE,68,1.6,4.3,26,0.00,,---,0.00,VWS V14.01,2013-07-26 01:50:00,
2013-07-25 21:55:00,66.0,30.2,30.03,ESE,112,2.2,5.6,26,0.00,,---,0.00,VWS V14.01,2013-07-26 01:55:00,
2013-07-25 22:00:00,66.0,30.2,30.03,East,90,1.6,2.7,26,0.00,,---,0.00,VWS V14.01,2013-07-26 02:00:00,
2013-07-25 22:06:00,66.2,29.4,30.03,NW,315,1.6,5.6,25,0.00,,---,0.00,VWS V14.01,2013-07-26 02:06:00,
2013-07-25 22:10:00,66.2,29.4,30.03,NNE,22,2.5,5.6,25,0.00,,---,0.00,VWS V14.01,2013-07-26 02:10:00,
2013-07-25 22:11:00,66.2,29.4,30.03,ENE,68,4.9,4.9,25,0.00,,---,0.00,VWS V14.01,2013-07-26 02:11:00,
2013-07-25 22:16:00,66.2,29.4,30.00,ENE,68,4.3,6.9,25,0.00,,---,0.00,VWS V14.01,2013-07-26 02:16:00,
2013-07-25 22:20:00,66.2,29.4,30.00,East,90,6.5,6.9,25,0.00,,---,0.00,VWS V14.01,2013-07-26 02:20:00,
2013-07-25 22:21:00,66.0,29.2,30.00,NE,45,3.8,7.8,25,0.00,,---,0.00,VWS V14.01,2013-07-26 02:21:00,
2013-07-25 22:27:00,66.0,29.2,30.00,NE,45,3.4,7.8,25,0.00,,---,0.00,VWS V14.01,2013-07-26 02:27:00,
2013-07-25 22:30:00,66.0,29.2,30.00,ENE,68,4.3,7.8,25,0.00,,---,0.00,VWS V14.01,2013-07-26 02:30:00,
2013-07-25 22:32:00,66.0,29.2,30.03,NNE,22,1.6,4.3,25,0.00,,---,0.00,VWS V14.01,2013-07-26 02:32:00,
2013-07-25 22:37:00,66.0,29.2,30.03,North,0,2.5,5.8,25,0.00,,---,0.00,VWS V14.01,2013-07-26 02:37:00,
2013-07-25 22:40:00,66.0,29.2,30.03,North,0,1.3,5.8,25,0.00,,---,0.00,VWS V14.01,2013-07-26 02:40:00,
2013-07-25 22:42:00,66.0,29.2,30.03,East,90,3.4,5.8,25,0.00,,---,0.00,VWS V14.01,2013-07-26 02:42:00,
2013-07-25 22:47:00,66.0,29.2,30.03,NNE,22,3.8,5.8,25,0.00,,---,0.00,VWS V14.01,2013-07-26 02:47:00,
2013-07-25 22:50:00,66.0,29.2,30.03,ENE,68,2.0,5.8,25,0.00,,---,0.00,VWS V14.01,2013-07-26 02:50:00,
2013-07-25 22:52:00,66.0,29.2,30.03,East,90,2.2,4.3,25,0.00,,---,0.00,VWS V14.01,2013-07-26 02:52:00,
2013-07-25 22:57:00,66.0,30.2,30.03,NNE,22,1.6,4.3,26,0.00,,---,0.00,VWS V14.01,2013-07-26 02:57:00,
2013-07-25 23:00:00,66.0,30.2,30.03,NNE,22,3.6,5.4,26,0.00,,---,0.00,VWS V14.01,2013-07-26 03:00:00,
2013-07-25 23:02:00,66.0,29.2,30.03,NE,45,3.8,5.8,25,0.00,,---,0.00,VWS V14.01,2013-07-26 03:02:00,
2013-07-25 23:07:00,66.0,29.2,30.03,NNE,22,1.3,5.8,25,0.00,,---,0.00,VWS V14.01,2013-07-26 03:07:00,
2013-07-25 23:10:00,66.0,29.2,30.03,NE,45,2.9,5.8,25,0.00,,---,0.00,VWS V14.01,2013-07-26 03:10:00,
2013-07-25 23:12:00,66.0,29.2,30.03,NE,45,2.5,4.9,25,0.00,,---,0.00,VWS V14.01,2013-07-26 03:12:00,
2013-07-25 23:17:00,66.0,29.2,30.03,ENE,68,6.0,6.0,25,0.00,,---,0.00,VWS V14.01,2013-07-26 03:17:00,
2013-07-25 23:20:00,66.0,29.2,30.03,NE,45,3.6,7.6,25,0.00,,---,0.00,VWS V14.01,2013-07-26 03:20:00,
2013-07-25 23:22:00,66.0,29.2,30.03,East,90,2.0,6.3,25,0.00,,---,0.00,VWS V14.01,2013-07-26 03:22:00,
2013-07-25 23:27:00,66.0,29.2,30.03,North,0,4.3,7.4,25,0.00,,---,0.00,VWS V14.01,2013-07-26 03:27:00,
2013-07-25 23:30:00,66.0,29.2,30.03,ENE,68,2.7,7.4,25,0.00,,---,0.00,VWS V14.01,2013-07-26 03:30:00,
2013-07-25 23:32:00,66.0,29.2,30.03,North,0,4.9,7.8,25,0.00,,---,0.00,VWS V14.01,2013-07-26 03:32:00,
2013-07-25 23:37:00,65.8,29.1,30.03,ENE,68,5.6,8.7,25,0.00,,---,0.00,VWS V14.01,2013-07-26 03:37:00,
2013-07-25 23:40:00,65.8,30.0,30.03,ENE,68,1.3,8.7,26,0.00,,---,0.00,VWS V14.01,2013-07-26 03:40:00,
2013-07-25 23:42:00,65.8,30.0,30.03,ENE,68,4.9,7.8,26,0.00,,---,0.00,VWS V14.01,2013-07-26 03:42:00,
2013-07-25 23:47:00,65.7,29.9,30.03,ENE,68,3.6,7.8,26,0.00,,---,0.00,VWS V14.01,2013-07-26 03:47:00,
2013-07-25 23:50:00,65.7,29.9,30.03,ENE,68,6.3,7.8,26,0.00,,---,0.00,VWS V14.01,2013-07-26 03:50:00,
2013-07-25 23:52:00,65.7,29.9,30.03,NE,45,2.7,6.3,26,0.00,,---,0.00,VWS V14.01,2013-07-26 03:52:00,
2013-07-25 23:58:00,65.7,29.9,30.03,ENE,68,4.0,6.3,26,0.00,,---,0.00,VWS V14.01,2013-07-26 03:58:00,